IZ2OSD Weather Reports


time (UTC)temp
C
wind
direction
speed
KPH
gust
KPH
rain 1hr
cm
rain 24hr
cm
rain mn
cm
humidity
%
barometer
mb
20260504215530 17 0.0 0.0 0.00 0.00 0.00 64 1014.8
20260504214524 17 0.0 0.0 0.00 0.00 0.00 63 1014.8
20260504213521 17 0.0 0.0 0.00 0.00 0.00 63 1015.1
20260504212517 17 0.0 0.0 0.00 0.00 0.00 62 1015.3
20260504211042 16 0.0 0.0 0.00 0.00 0.00 60 1015.3
20260504210037 17 0.0 0.0 0.00 0.00 0.00 57 1015.1
20260504205036 17 315 0.0 1.6 0.00 0.00 0.00 55 1015.3
20260504204031 17 315 0.0 3.2 0.00 0.00 0.00 53 1015.3
20260504203023 17 315 0.0 3.2 0.00 0.00 0.00 51 1015.1
20260504202019 17 315 0.0 1.6 0.00 0.00 0.00 49 1014.8
20260504201013 17 315 1.6 3.2 0.00 0.00 0.00 49 1015.3
20260504200010 18 315 3.2 3.2 0.00 0.00 0.00 49 1015.1
20260504195008 18 315 1.6 3.2 0.00 0.00 0.00 51 1014.9
20260504194506 18 315 1.6 4.8 0.00 0.00 0.00 52 1015.0
20260504193459 18 315 1.6 3.2 0.00 0.00 0.00 52 1015.0
20260504192452 18 315 0.0 1.6 0.00 0.00 0.00 52 1014.9
20260504191509 18 315 1.6 3.2 0.00 0.00 0.00 51 1014.6
20260504190446 19 315 1.6 3.2 0.00 0.00 0.00 49 1014.5
20260504185457 19 315 1.6 4.8 0.00 0.00 0.00 50 1014.6
20260504184431 20 0.0 0.0 0.00 0.00 0.00 48 1014.3
20260504183348 20 0.0 0.0 0.00 0.00 0.00 47 1014.4
20260504182344 20 0.0 0.0 0.00 0.00 0.00 47 1014.4
20260504181339 20 0.0 0.0 0.00 0.00 0.00 46 1014.3
20260504180356 20 0.0 0.0 0.00 0.00 0.00 46 1014.5
20260504175355 20 0.0 0.0 0.00 0.00 0.00 45 1014.4
20260504174344 20 0.0 0.0 0.00 0.00 0.00 45 1014.4
20260504173320 20 0.0 0.0 0.00 0.00 0.00 44 1014.5
20260504172316 21 0.0 0.0 0.00 0.00 0.00 44 1014.4
20260504171314 21 0.0 0.0 0.00 0.00 0.00 44 1014.5
20260504170308 21 0.0 0.0 0.00 0.00 0.00 43 1014.4
20260504160236 21 112 4.8 6.4 0.00 0.00 0.00 44 1014.7
20260504150206 22 292 0.0 4.8 0.00 0.00 0.00 45 1015.1
20260504141158 22 292 1.6 3.2 0.00 0.00 0.00 42 1015.5
20260504140155 22 315 3.2 6.4 0.00 0.00 0.00 41 1015.5
20260504130133 22 292 3.2 4.8 0.00 0.00 0.00 42 1016.1
20260504120113 21 292 3.2 4.8 0.00 0.00 0.00 42 1016.4
20260504081428 21 292 0.0 3.2 0.00 0.00 0.00 39 1016.8
20260504080424 20 315 0.0 1.6 0.00 0.00 0.00 41 1016.8
20260504070351 20 292 0.0 1.6 0.00 0.00 0.00 42 1016.5
20260504050302 14 0.0 0.0 0.00 0.00 0.00 60 1016.0
20260504045300 13 0.0 0.0 0.00 0.00 0.00 59 1015.9
20260504044255 14 0.0 0.0 0.00 0.00 0.00 58 1015.5
20260504043246 13 0.0 0.0 0.00 0.00 0.00 60 1015.3
20260504042242 13 0.0 0.0 0.00 0.00 0.00 60 1015.7
20260504041233 13 0.0 0.0 0.00 0.00 0.00 60 1015.5
20260504040230 13 0.0 0.0 0.00 0.00 0.00 60 1015.5
20260504035225 13 0.0 0.0 0.00 0.00 0.00 61 1015.3
20260504034222 13 0.0 0.0 0.00 0.00 0.00 61 1015.5
20260504033218 13 0.0 0.0 0.00 0.00 0.00 61 1015.5
20260504032215 13 0.0 0.0 0.00 0.00 0.00 62 1015.5
20260504031211 13 0.0 0.0 0.00 0.00 0.00 63 1015.4
20260504030208 13 0.0 0.0 0.00 0.00 0.00 64 1015.6
20260504025158 13 0.0 0.0 0.00 0.00 0.00 64 1015.3
20260504024155 14 0.0 0.0 0.00 0.00 0.00 63 1015.4
20260504023145 14 0.0 0.0 0.00 0.00 0.00 63 1015.4
20260504022201 15 0.0 0.0 0.00 0.00 0.00 63 1015.6
20260504021137 15 0.0 0.0 0.00 0.00 0.00 63 1015.5
20260504020214 15 0.0 0.0 0.00 0.00 0.00 63 1015.6
20260504015124 15 0.0 0.0 0.00 0.00 0.00 61 1015.6
20260504014121 15 0.0 0.0 0.00 0.00 0.00 60 1015.7
20260504013112 16 0.0 0.0 0.00 0.00 0.00 57 1015.5
20260504012130 16 0.0 0.0 0.00 0.00 0.00 56 1015.4
20260504011059 16 0.0 0.0 0.00 0.00 0.00 57 1015.6
20260504010053 16 0.0 0.0 0.00 0.00 0.00 56 1015.5
20260504005050 16 315 0.0 1.6 0.00 0.00 0.00 57 1015.8
20260504004046 16 0.0 0.0 0.00 0.00 0.00 59 1015.8
20260504003036 16 0.0 0.0 0.00 0.00 0.00 60 1016.0
20260504002035 16 315 0.0 1.6 0.00 0.00 0.00 60 1015.9
20260504001023 16 0.0 0.0 0.00 0.00 0.00 59 1016.4
20260504000021 16 0.0 0.0 0.00 0.00 0.00 59 1016.2
20260503235014 16 0.0 0.0 0.00 0.00 0.00 58 1016.1
20260503234011 16 0.0 0.0 0.00 0.00 0.00 57 1016.3
20260503233008 16 0.0 0.0 0.00 0.00 0.00 57 1016.5
20260503232500 16 0.0 0.0 0.00 0.00 0.00 57 1016.7
20260503231455 16 0.0 0.0 0.00 0.00 0.00 56 1016.5
20260503230446 16 0.0 0.0 0.00 0.00 0.00 56 1016.6
20260503225445 16 0.0 0.0 0.00 0.00 0.00 55 1016.6
20260503224438 17 0.0 0.0 0.00 0.00 0.00 54 1016.6
20260503223435 17 0.0 0.0 0.00 0.00 0.00 53 1016.6
20260503222432 17 0.0 0.0 0.00 0.00 0.00 53 1016.6
20260503221423 17 0.0 0.0 0.00 0.00 0.00 53 1016.7
20260503220419 17 0.0 0.0 0.00 0.00 0.00 53 1016.5